Overview Statistics Trail Chart Weather Telemetry Raw packets
 

This is the latest recevied weather packets stored in our database for station/object EA4URC-10. If no packets are shown the sender has not sent any weather packets the latest 10 day(s).

<< 12 13 14 15 16 17 18 >>
Time Temp. Humidity Pressure Rain* Wind** Luminosity Snow
1788023384 24.44° C 21% 1035.9 hPa - - - -
1788021584 25° C 21% 1036 hPa - - - -
1788019784 25.56° C 21% 1036.1 hPa - - - -
1788017983 27.22° C 19% 1036.3 hPa - - - -
1788016225 28.89° C 19% 1036.5 hPa - - - -
1788016182 28.89° C 19% 1036.5 hPa - - - -
1788014388 28.89° C 19% 1036.8 hPa - - - -
1788012587 28.89° C 19% 1037 hPa - - - -
1788010787 30° C 18% 1037.1 hPa - - - -
1788008986 28.89° C 19% 1037.3 hPa - - - -
1788007185 28.89° C 19% 1037.4 hPa - - - -
1788005385 28.33° C 19% 1037.5 hPa - - - -
1788003584 28.33° C 20% 1037.7 hPa - - - -
1788001784 29.44° C 20% 1037.8 hPa - - - -
1787999983 26.67° C 23% 1038.1 hPa - - - -
1787998182 27.22° C 24% 1038.3 hPa - - - -
1787996382 25° C 26% 1038.1 hPa - - - -
1787994581 25° C 28% 1038 hPa - - - -
1787992787 23.33° C 30% 1037.6 hPa - - - -
1787990987 22.22° C 32% 1037.3 hPa - - - -
1787989186 21.67° C 35% 1037.3 hPa - - - -
1787987385 19.44° C 38% 1037.2 hPa - - - -
1787985584 17.78° C 43% 1037.2 hPa - - - -
1787983784 15.56° C 48% 1036.9 hPa - - - -
1787981983 13.89° C 52% 1036.7 hPa - - - -

* Rain since midnight (hover to see other rain measurements)
** Current wind speed in m/s (hover to see current wind gust speed)